{"data":{"norad_id":62095,"intl_designator":"2024-220H","name":"STARLINK-11369 [DTC]","alt_names":[],"object_type":"PAYLOAD","status":"ACTIVE","operator":null,"country":"US","launch_date":"2024-11-25","launch_site_code":"AFETR","launch_vehicle":null,"mission":null,"orbit_class":"UNKNOWN","rcs_meters":null,"size_class":null,"mass_kg":null,"dimensions":null,"purposes":["comms"],"wikipedia_slug":null,"has_3d_model":false,"image_url":null,"decayed_at":null,"tle_current":{"epoch":"2026-05-24T11:21:51.391008Z","epoch_age_seconds":127303,"freshness":"FRESH","line1":"1 62095U 24220H   26144.47351147  .00147680  00000+0  11322-2 0  9997","line2":"2 62095  42.9994 306.1279 0001652 274.2078  85.8601 15.70878390 86979","mean_motion":15.7087839,"eccentricity":0.0001652,"inclination_deg":42.9994,"raan_deg":306.1279,"arg_perigee_deg":274.2078,"mean_anomaly_deg":85.8601,"bstar":0.0011322,"rev_number":8697,"period_min":91.668458180267,"perigee_km":355.27279490814,"apogee_km":357.49788108861,"semimajor_km":6734.5223379984,"source":"CELESTRAK","updated_at":"2026-05-25T13:38:19.558389Z"}}}